This is the latest recevied weather packets stored in our database for station/object KC7YCE. If no packets are shown the sender has not sent any weather packets the latest 10 day(s).
| Time | Temp. | Humidity | Pressure | Rain* | Wind** | Luminosity | Snow |
|---|---|---|---|---|---|---|---|
| 1777934661 | 13.89° C | 38% | 1015.2 hPa | 0 mm | - | - | - |
| 1777934062 | 13.89° C | 40% | 1015.3 hPa | 0 mm | - | - | - |
| 1777932860 | 12.22° C | 41% | 1015.5 hPa | 0 mm | - | - | - |
| 1777930970 | 12.22° C | 42% | 1015.9 hPa | 0 mm | - | - | - |
| 1777930370 | 12.78° C | 40% | 1016.1 hPa | 0 mm | - | - | - |
| 1777929110 | 15° C | 31% | 1015.8 hPa | 0 mm | - | - | - |
| 1777927880 | 15° C | 31% | 1015.9 hPa | 0 mm | - | - | - |
| 1777927281 | 13.33° C | 34% | 1015.8 hPa | 0 mm | - | - | - |
| 1777926680 | 13.33° C | 33% | 1015.8 hPa | 0 mm | - | - | - |
| 1777922450 | 13.89° C | 28% | 1016.1 hPa | 0 mm | - | - | - |
| 1777919449 | 12.78° C | 30% | 1016.6 hPa | 0 mm | - | - | - |
| 1777917050 | 12.22° C | 35% | 1017 hPa | 0 mm | - | - | - |
| 1777914619 | 14.44° C | 33% | 1017.3 hPa | 0 mm | - | - | - |
| 1777913418 | 13.33° C | 34% | 1017.3 hPa | 0 mm | - | - | - |
| 1777912819 | 12.78° C | 34% | 1017.3 hPa | 0 mm | - | - | - |
| 1777911618 | 12.22° C | 38% | 1017.4 hPa | 0 mm | - | - | - |
| 1777911018 | 12.22° C | 36% | 1017.6 hPa | 0 mm | - | - | - |
| 1777909789 | 11.11° C | 39% | 1017.7 hPa | 0 mm | - | - | - |
| 1777909188 | 11.11° C | 38% | 1017.8 hPa | 0 mm | - | - | - |
| 1777908588 | 11.67° C | 37% | 1017.9 hPa | 0 mm | - | - | - |
| 1777907988 | 11.11° C | 37% | 1017.9 hPa | 0 mm | - | - | - |
| 1777907388 | 11.67° C | 35% | 1017.9 hPa | 0 mm | - | - | - |
| 1777906788 | 10.56° C | 38% | 1018 hPa | 0 mm | - | - | - |
| 1777906188 | 10° C | 39% | 1018.1 hPa | 0 mm | - | - | - |
| 1777905588 | 10° C | 41% | 1018.1 hPa | 0 mm | - | - | - |
* Rain latest hour (hover to see other rain measurements)
** Current wind speed in m/s (hover to see current wind gust speed)